Year,Month,Day,Hour,Minute,Value (Times are PST for temperature in C)
2015,08,21,00,00,18.70
2015,08,21,00,01,18.60
2015,08,21,00,02,18.60
2015,08,21,00,03,18.60
2015,08,21,00,04,18.60
2015,08,21,00,05,18.60
2015,08,21,00,06,18.60
2015,08,21,00,07,18.50
2015,08,21,00,08,18.50
2015,08,21,00,09,18.50
2015,08,21,00,10,18.50
2015,08,21,00,11,18.50
2015,08,21,00,12,18.50
2015,08,21,00,13,18.40
2015,08,21,00,14,18.40
2015,08,21,00,15,18.40
2015,08,21,00,16,18.40
2015,08,21,00,17,18.40
2015,08,21,00,18,18.30
2015,08,21,00,19,18.30
2015,08,21,00,20,18.30
2015,08,21,00,21,18.30
2015,08,21,00,22,18.30
2015,08,21,00,23,18.30
2015,08,21,00,24,18.30
2015,08,21,00,25,18.20
2015,08,21,00,26,18.20
2015,08,21,00,27,18.20
2015,08,21,00,28,18.20
2015,08,21,00,29,18.20
2015,08,21,00,30,18.10
2015,08,21,00,31,18.10
2015,08,21,00,32,18.10
2015,08,21,00,33,18.10
2015,08,21,00,34,18.10
2015,08,21,00,35,18.10
2015,08,21,00,36,18.10
2015,08,21,00,37,18.00
2015,08,21,00,38,18.00
2015,08,21,00,39,18.00
2015,08,21,00,40,18.00
2015,08,21,00,41,18.00
2015,08,21,00,42,18.00
2015,08,21,00,43,18.00
2015,08,21,00,44,17.90
2015,08,21,00,45,17.90
2015,08,21,00,46,17.90
2015,08,21,00,47,17.90
2015,08,21,00,48,17.90
2015,08,21,00,49,17.90
2015,08,21,00,50,17.90
2015,08,21,00,51,17.90
2015,08,21,00,52,17.90
2015,08,21,00,53,17.90
2015,08,21,00,54,17.90
2015,08,21,00,55,17.90
2015,08,21,00,56,17.90
2015,08,21,00,57,17.80
2015,08,21,00,58,17.80
2015,08,21,00,59,17.80
2015,08,21,01,00,17.80
2015,08,21,01,01,17.80
2015,08,21,01,02,17.80
2015,08,21,01,03,17.70
2015,08,21,01,04,17.70
2015,08,21,01,05,17.70
2015,08,21,01,06,17.70
2015,08,21,01,07,17.70
2015,08,21,01,08,17.70
2015,08,21,01,09,17.60
2015,08,21,01,10,17.60
2015,08,21,01,11,17.60
2015,08,21,01,12,17.60
2015,08,21,01,13,17.60
2015,08,21,01,14,17.60
2015,08,21,01,15,17.60
2015,08,21,01,16,17.60
2015,08,21,01,17,17.60
2015,08,21,01,18,17.60
2015,08,21,01,19,17.60
2015,08,21,01,20,17.50
2015,08,21,01,21,17.50
2015,08,21,01,22,17.50
2015,08,21,01,23,17.50
2015,08,21,01,24,17.50
2015,08,21,01,25,17.50
2015,08,21,01,26,17.50
2015,08,21,01,27,17.40
2015,08,21,01,28,17.40
2015,08,21,01,29,17.40
2015,08,21,01,30,17.40
2015,08,21,01,31,17.40
2015,08,21,01,32,17.40
2015,08,21,01,33,17.40
2015,08,21,01,34,17.40
2015,08,21,01,35,17.40
2015,08,21,01,36,17.40
2015,08,21,01,37,17.40
2015,08,21,01,38,17.40
2015,08,21,01,39,17.40
2015,08,21,01,40,17.40
2015,08,21,01,41,17.40
2015,08,21,01,42,17.40
2015,08,21,01,43,17.30
2015,08,21,01,44,17.30
2015,08,21,01,45,17.30
2015,08,21,01,46,17.30
2015,08,21,01,47,17.30
2015,08,21,01,48,17.30
2015,08,21,01,49,17.30
2015,08,21,01,50,17.30
2015,08,21,01,51,17.20
2015,08,21,01,52,17.20
2015,08,21,01,53,17.20
2015,08,21,01,54,17.20
2015,08,21,01,55,17.20
2015,08,21,01,56,17.20
2015,08,21,01,57,17.10
2015,08,21,01,58,17.10
2015,08,21,01,59,17.10
2015,08,21,02,00,17.10
2015,08,21,02,01,17.10
2015,08,21,02,02,17.00
2015,08,21,02,03,17.00
2015,08,21,02,04,17.00
2015,08,21,02,05,17.00
2015,08,21,02,06,16.90
2015,08,21,02,07,16.90
2015,08,21,02,08,16.90
2015,08,21,02,09,16.90
2015,08,21,02,10,16.90
2015,08,21,02,11,16.90
2015,08,21,02,12,16.80
2015,08,21,02,13,16.80
2015,08,21,02,14,16.80
2015,08,21,02,15,16.80
2015,08,21,02,16,16.80
2015,08,21,02,17,16.80
2015,08,21,02,18,16.80
2015,08,21,02,19,16.80
2015,08,21,02,20,16.80
2015,08,21,02,21,16.70
2015,08,21,02,22,16.70
2015,08,21,02,23,16.70
2015,08,21,02,24,16.70
2015,08,21,02,25,16.70
2015,08,21,02,26,16.70
2015,08,21,02,27,16.60
2015,08,21,02,28,16.60
2015,08,21,02,29,16.60
2015,08,21,02,30,16.60
2015,08,21,02,31,16.60
2015,08,21,02,32,16.60
2015,08,21,02,33,16.60
2015,08,21,02,34,16.60
2015,08,21,02,35,16.60
2015,08,21,02,36,16.60
2015,08,21,02,37,16.60
2015,08,21,02,38,16.50
2015,08,21,02,39,16.50
2015,08,21,02,40,16.50
2015,08,21,02,41,16.60
2015,08,21,02,42,16.50
2015,08,21,02,43,16.50
2015,08,21,02,44,16.50
2015,08,21,02,45,16.50
2015,08,21,02,46,16.50
2015,08,21,02,47,16.50
2015,08,21,02,48,16.50
2015,08,21,02,49,16.50
2015,08,21,02,50,16.40
2015,08,21,02,51,16.40
2015,08,21,02,52,16.40
2015,08,21,02,53,16.40
2015,08,21,02,54,16.40
2015,08,21,02,55,16.40
2015,08,21,02,56,16.40
2015,08,21,02,57,16.40
2015,08,21,02,58,16.40
2015,08,21,02,59,16.40
2015,08,21,03,00,16.40
2015,08,21,03,01,16.40
2015,08,21,03,02,16.40
2015,08,21,03,03,16.40
2015,08,21,03,04,16.40
2015,08,21,03,05,16.40
2015,08,21,03,06,16.40
2015,08,21,03,07,16.40
2015,08,21,03,08,16.40
2015,08,21,03,09,16.40
2015,08,21,03,10,16.40
2015,08,21,03,11,16.40
2015,08,21,03,12,16.40
2015,08,21,03,13,16.40
2015,08,21,03,14,16.50
2015,08,21,03,15,16.50
2015,08,21,03,16,16.50
2015,08,21,03,17,16.50
2015,08,21,03,18,16.60
2015,08,21,03,19,16.60
2015,08,21,03,20,16.60
2015,08,21,03,21,16.60
2015,08,21,03,22,16.60
2015,08,21,03,23,16.60
2015,08,21,03,24,16.60
2015,08,21,03,25,16.60
2015,08,21,03,26,16.60
2015,08,21,03,27,16.60
2015,08,21,03,28,16.60
2015,08,21,03,29,16.60
2015,08,21,03,30,16.60
2015,08,21,03,31,16.60
2015,08,21,03,32,16.50
2015,08,21,03,33,16.50
2015,08,21,03,34,16.50
2015,08,21,03,35,16.50
2015,08,21,03,36,16.50
2015,08,21,03,37,16.50
2015,08,21,03,38,16.50
2015,08,21,03,39,16.50
2015,08,21,03,40,16.50
2015,08,21,03,41,16.50
2015,08,21,03,42,16.60
2015,08,21,03,43,16.60
2015,08,21,03,44,16.60
2015,08,21,03,45,16.60
2015,08,21,03,46,16.50
2015,08,21,03,47,16.50
2015,08,21,03,48,16.50
2015,08,21,03,49,16.50
2015,08,21,03,50,16.50
2015,08,21,03,51,16.40
2015,08,21,03,52,16.40
2015,08,21,03,53,16.40
2015,08,21,03,54,16.40
2015,08,21,03,55,16.50
2015,08,21,03,56,16.50
2015,08,21,03,57,16.40
2015,08,21,03,58,16.40
2015,08,21,03,59,16.40
2015,08,21,04,00,16.40
2015,08,21,04,01,16.40
2015,08,21,04,02,16.40
2015,08,21,04,03,16.30
2015,08,21,04,04,16.30
2015,08,21,04,05,16.30
2015,08,21,04,06,16.20
2015,08,21,04,07,16.20
2015,08,21,04,08,16.20
2015,08,21,04,09,16.20
2015,08,21,04,10,16.10
2015,08,21,04,11,16.10
2015,08,21,04,12,16.10
2015,08,21,04,13,16.10
2015,08,21,04,14,16.10
2015,08,21,04,15,16.10
2015,08,21,04,16,16.10
2015,08,21,04,17,16.10
2015,08,21,04,18,16.10
2015,08,21,04,19,16.00
2015,08,21,04,20,16.00
2015,08,21,04,21,16.00
2015,08,21,04,22,16.00
2015,08,21,04,23,15.90
2015,08,21,04,24,15.90
2015,08,21,04,25,15.90
2015,08,21,04,26,15.90
2015,08,21,04,27,15.80
2015,08,21,04,28,15.90
2015,08,21,04,29,15.90
2015,08,21,04,30,15.90
2015,08,21,04,31,15.90
2015,08,21,04,32,15.90
2015,08,21,04,33,15.90
2015,08,21,04,34,15.80
2015,08,21,04,35,15.90
2015,08,21,04,36,15.90
2015,08,21,04,37,15.90
2015,08,21,04,38,15.90
2015,08,21,04,39,15.90
2015,08,21,04,40,15.80
2015,08,21,04,41,15.80
2015,08,21,04,42,15.80
2015,08,21,04,43,15.80
2015,08,21,04,44,15.80
2015,08,21,04,45,15.80
2015,08,21,04,46,15.80
2015,08,21,04,47,15.80
2015,08,21,04,48,15.80
2015,08,21,04,49,15.80
2015,08,21,04,50,15.80
2015,08,21,04,51,15.70
2015,08,21,04,52,15.70
2015,08,21,04,53,15.70
2015,08,21,04,54,15.70
2015,08,21,04,55,15.60
2015,08,21,04,56,15.60
2015,08,21,04,57,15.60
2015,08,21,04,58,15.60
2015,08,21,04,59,15.50
2015,08,21,05,00,15.50
2015,08,21,05,01,15.40
2015,08,21,05,02,15.40
2015,08,21,05,03,15.40
2015,08,21,05,04,15.40
2015,08,21,05,05,15.40
2015,08,21,05,06,15.30
2015,08,21,05,07,15.30
2015,08,21,05,08,15.30
2015,08,21,05,09,15.30
2015,08,21,05,10,15.30
2015,08,21,05,11,15.30
2015,08,21,05,12,15.30
2015,08,21,05,13,15.20
2015,08,21,05,14,15.20
2015,08,21,05,15,15.20
2015,08,21,05,16,15.20
2015,08,21,05,17,15.10
2015,08,21,05,18,15.10
2015,08,21,05,19,15.10
2015,08,21,05,20,15.10
2015,08,21,05,21,15.10
2015,08,21,05,22,15.10
2015,08,21,05,23,15.10
2015,08,21,05,24,15.00
2015,08,21,05,25,15.00
2015,08,21,05,26,15.00
2015,08,21,05,27,15.00
2015,08,21,05,28,14.90
2015,08,21,05,29,14.90
2015,08,21,05,30,14.90
2015,08,21,05,31,14.90
2015,08,21,05,32,14.90
2015,08,21,05,33,14.90
2015,08,21,05,34,14.90
2015,08,21,05,35,14.80
2015,08,21,05,36,14.80
2015,08,21,05,37,14.80
2015,08,21,05,38,14.80
2015,08,21,05,39,14.80
2015,08,21,05,40,14.80
2015,08,21,05,41,14.90
2015,08,21,05,42,14.90
2015,08,21,05,43,14.90
2015,08,21,05,44,14.90
2015,08,21,05,45,14.90
2015,08,21,05,46,14.90
2015,08,21,05,47,14.90
2015,08,21,05,48,14.90
2015,08,21,05,49,14.90
2015,08,21,05,50,14.90
2015,08,21,05,51,14.90
2015,08,21,05,52,14.90
2015,08,21,05,53,14.90
2015,08,21,05,54,14.90
2015,08,21,05,55,14.90
2015,08,21,05,56,14.90
2015,08,21,05,57,14.90
2015,08,21,05,58,14.90
2015,08,21,05,59,14.90
2015,08,21,06,00,14.90
2015,08,21,06,01,14.90
2015,08,21,06,02,14.90
2015,08,21,06,03,14.90
2015,08,21,06,04,14.90
2015,08,21,06,05,14.90
2015,08,21,06,06,15.00
2015,08,21,06,07,15.00
2015,08,21,06,08,15.00
2015,08,21,06,09,15.00
2015,08,21,06,10,15.00
2015,08,21,06,11,15.00
2015,08,21,06,12,15.10
2015,08,21,06,13,15.10
2015,08,21,06,14,15.10
2015,08,21,06,15,15.10
2015,08,21,06,16,15.20
2015,08,21,06,17,15.20
2015,08,21,06,18,15.20
2015,08,21,06,19,15.20
2015,08,21,06,20,15.10
2015,08,21,06,21,15.10
2015,08,21,06,22,15.10
2015,08,21,06,23,15.10
2015,08,21,06,24,15.20
2015,08,21,06,25,15.20
2015,08,21,06,26,15.20
2015,08,21,06,27,15.20
2015,08,21,06,28,15.20
2015,08,21,06,29,15.20
2015,08,21,06,30,15.20
2015,08,21,06,31,15.20
2015,08,21,06,32,15.20
2015,08,21,06,33,15.20
2015,08,21,06,34,15.20
2015,08,21,06,35,15.20
2015,08,21,06,36,15.30
2015,08,21,06,37,15.30
2015,08,21,06,38,15.30
2015,08,21,06,39,15.30
2015,08,21,06,40,15.30
2015,08,21,06,41,15.40
2015,08,21,06,42,15.40
2015,08,21,06,43,15.40
2015,08,21,06,44,15.50
2015,08,21,06,45,15.50
2015,08,21,06,46,15.50
2015,08,21,06,47,15.50
2015,08,21,06,48,15.60
2015,08,21,06,49,15.60
2015,08,21,06,50,15.60
2015,08,21,06,51,15.60
2015,08,21,06,52,15.60
2015,08,21,06,53,15.60
2015,08,21,06,54,15.60
2015,08,21,06,55,15.60
2015,08,21,06,56,15.60
2015,08,21,06,57,15.70
2015,08,21,06,58,15.70
2015,08,21,06,59,15.70
2015,08,21,07,00,15.80
2015,08,21,07,01,15.80
2015,08,21,07,02,15.90
2015,08,21,07,03,15.90
2015,08,21,07,04,15.90
2015,08,21,07,05,15.90
2015,08,21,07,06,15.90
2015,08,21,07,07,15.90
2015,08,21,07,08,16.00
2015,08,21,07,09,16.00
2015,08,21,07,10,16.00
2015,08,21,07,11,16.00
2015,08,21,07,12,16.00
2015,08,21,07,13,16.10
2015,08,21,07,14,16.00
2015,08,21,07,15,16.00
2015,08,21,07,16,16.00
2015,08,21,07,17,16.00
2015,08,21,07,18,16.00
2015,08,21,07,19,16.00
2015,08,21,07,20,16.00
2015,08,21,07,21,16.00
2015,08,21,07,22,16.00
2015,08,21,07,23,16.00
2015,08,21,07,24,16.10
2015,08,21,07,25,16.10
2015,08,21,07,26,16.10
2015,08,21,07,27,16.10
2015,08,21,07,28,16.10
2015,08,21,07,29,16.10
2015,08,21,07,30,16.10
2015,08,21,07,31,16.10
2015,08,21,07,32,16.10
2015,08,21,07,33,16.00
2015,08,21,07,34,16.00
2015,08,21,07,35,16.00
2015,08,21,07,36,16.00
2015,08,21,07,37,16.00
2015,08,21,07,38,16.00
2015,08,21,07,39,16.00
2015,08,21,07,40,16.00
2015,08,21,07,41,16.10
2015,08,21,07,42,16.10
2015,08,21,07,43,16.10
2015,08,21,07,44,16.20
2015,08,21,07,45,16.20
2015,08,21,07,46,16.20
2015,08,21,07,47,16.20
2015,08,21,07,48,16.20
2015,08,21,07,49,16.30
2015,08,21,07,50,16.30
2015,08,21,07,51,16.30
2015,08,21,07,52,16.30
2015,08,21,07,53,16.30
2015,08,21,07,54,16.30
2015,08,21,07,55,16.30
2015,08,21,07,56,16.30
2015,08,21,07,57,16.30
2015,08,21,07,58,16.30
2015,08,21,07,59,16.30
2015,08,21,08,00,16.30
2015,08,21,08,01,16.30
2015,08,21,08,02,16.30
2015,08,21,08,03,16.30
2015,08,21,08,04,16.40
2015,08,21,08,05,16.40
2015,08,21,08,06,16.40
2015,08,21,08,07,16.40
2015,08,21,08,08,16.40
2015,08,21,08,09,16.40
2015,08,21,08,10,16.40
2015,08,21,08,11,16.40
2015,08,21,08,12,16.50
2015,08,21,08,13,16.50
2015,08,21,08,14,16.50
2015,08,21,08,15,16.50
2015,08,21,08,16,16.60
2015,08,21,08,17,16.60
2015,08,21,08,18,16.60
2015,08,21,08,19,16.60
2015,08,21,08,20,16.60
2015,08,21,08,21,16.60
2015,08,21,08,22,16.60
2015,08,21,08,23,16.70
2015,08,21,08,24,16.70
2015,08,21,08,25,16.70
2015,08,21,08,26,16.70
2015,08,21,08,27,16.70
2015,08,21,08,28,16.70
2015,08,21,08,29,16.70
2015,08,21,08,30,16.80
2015,08,21,08,31,16.80
2015,08,21,08,32,16.80
2015,08,21,08,33,16.80
2015,08,21,08,34,16.90
2015,08,21,08,35,16.90
2015,08,21,08,36,16.90
2015,08,21,08,37,17.00
2015,08,21,08,38,17.00
2015,08,21,08,39,17.10
2015,08,21,08,40,17.10
2015,08,21,08,41,17.10
2015,08,21,08,42,17.20
2015,08,21,08,43,17.20
2015,08,21,08,44,17.20
2015,08,21,08,45,17.20
2015,08,21,08,46,17.10
2015,08,21,08,47,17.10
2015,08,21,08,48,17.10
2015,08,21,08,49,17.10
2015,08,21,08,50,17.10
2015,08,21,08,51,17.10
2015,08,21,08,52,17.20
2015,08,21,08,53,17.20
2015,08,21,08,54,17.20
2015,08,21,08,55,17.30
2015,08,21,08,56,17.30
2015,08,21,08,57,17.30
2015,08,21,08,58,17.30
2015,08,21,08,59,17.40
2015,08,21,09,00,17.40
2015,08,21,09,01,17.50
2015,08,21,09,02,17.50
2015,08,21,09,03,17.50
2015,08,21,09,04,17.50
2015,08,21,09,05,17.40
2015,08,21,09,06,17.50
2015,08,21,09,07,17.50
2015,08,21,09,08,17.60
2015,08,21,09,09,17.60
2015,08,21,09,10,17.70
2015,08,21,09,11,17.70
2015,08,21,09,12,17.80
2015,08,21,09,13,17.80
2015,08,21,09,14,17.90
2015,08,21,09,15,17.90
2015,08,21,09,16,17.80
2015,08,21,09,17,17.70
2015,08,21,09,18,17.70
2015,08,21,09,19,17.70
2015,08,21,09,20,17.70
2015,08,21,09,21,17.70
2015,08,21,09,22,17.70
2015,08,21,09,23,17.70
2015,08,21,09,24,17.70
2015,08,21,09,25,17.70
2015,08,21,09,26,17.70
2015,08,21,09,27,17.70
2015,08,21,09,28,17.80
2015,08,21,09,29,17.80
2015,08,21,09,30,17.80
2015,08,21,09,31,17.90
2015,08,21,09,32,17.90
2015,08,21,09,33,17.90
2015,08,21,09,34,18.00
2015,08,21,09,35,18.10
2015,08,21,09,36,18.10
2015,08,21,09,37,18.10
2015,08,21,09,38,18.10
2015,08,21,09,39,18.20
2015,08,21,09,40,18.20
2015,08,21,09,41,18.30
2015,08,21,09,42,18.30
2015,08,21,09,43,18.30
2015,08,21,09,44,18.30
2015,08,21,09,45,18.30
2015,08,21,09,46,18.40
2015,08,21,09,47,18.40
2015,08,21,09,48,18.40
2015,08,21,09,49,18.40
2015,08,21,09,50,18.40
2015,08,21,09,51,18.50
2015,08,21,09,52,18.50
2015,08,21,09,53,18.60
2015,08,21,09,54,18.60
2015,08,21,09,55,18.60
2015,08,21,09,56,18.60
2015,08,21,09,57,18.60
2015,08,21,09,58,18.60
2015,08,21,09,59,18.70
2015,08,21,10,00,18.70
2015,08,21,10,01,18.80
2015,08,21,10,02,18.80
2015,08,21,10,03,18.90
2015,08,21,10,04,18.90
2015,08,21,10,05,18.90
2015,08,21,10,06,18.90
2015,08,21,10,07,18.90
2015,08,21,10,08,18.90
2015,08,21,10,09,18.90
2015,08,21,10,10,18.90
2015,08,21,10,11,18.90
2015,08,21,10,12,18.90
2015,08,21,10,13,18.90
2015,08,21,10,14,18.90
2015,08,21,10,15,18.90
2015,08,21,10,16,18.90
2015,08,21,10,17,18.90
2015,08,21,10,18,19.00
2015,08,21,10,19,19.10
2015,08,21,10,20,19.10
2015,08,21,10,21,19.20
2015,08,21,10,22,19.20
2015,08,21,10,23,19.20
2015,08,21,10,24,19.30
2015,08,21,10,25,19.30
2015,08,21,10,26,19.40
2015,08,21,10,27,19.40
2015,08,21,10,28,19.40
2015,08,21,10,29,19.40
2015,08,21,10,30,19.40
2015,08,21,10,31,19.30
2015,08,21,10,32,19.30
2015,08,21,10,33,19.30
2015,08,21,10,34,19.30
2015,08,21,10,35,19.30
2015,08,21,10,36,19.30
2015,08,21,10,37,19.30
2015,08,21,10,38,19.30
2015,08,21,10,39,19.40
2015,08,21,10,40,19.40
2015,08,21,10,41,19.40
2015,08,21,10,42,19.50
2015,08,21,10,43,19.60
2015,08,21,10,44,19.60
2015,08,21,10,45,19.60
2015,08,21,10,46,19.60
2015,08,21,10,47,19.60
2015,08,21,10,48,19.50
2015,08,21,10,49,19.50
2015,08,21,10,50,19.50
2015,08,21,10,51,19.50
2015,08,21,10,52,19.60
2015,08,21,10,53,19.60
2015,08,21,10,54,19.70
2015,08,21,10,55,19.70
2015,08,21,10,56,19.70
2015,08,21,10,57,19.70
2015,08,21,10,58,19.70
2015,08,21,10,59,19.80
2015,08,21,11,00,19.80
2015,08,21,11,01,19.90
2015,08,21,11,02,19.90
2015,08,21,11,03,19.90
2015,08,21,11,04,19.90
2015,08,21,11,05,19.90
2015,08,21,11,06,19.90
2015,08,21,11,07,20.00
2015,08,21,11,08,20.10
2015,08,21,11,09,20.10
2015,08,21,11,10,20.20
2015,08,21,11,11,20.20
2015,08,21,11,12,20.20
2015,08,21,11,13,20.10
2015,08,21,11,14,20.20
2015,08,21,11,15,20.20
2015,08,21,11,16,20.20
2015,08,21,11,17,20.10
2015,08,21,11,18,20.10
2015,08,21,11,19,20.00
2015,08,21,11,20,20.00
2015,08,21,11,21,19.90
2015,08,21,11,22,19.90
2015,08,21,11,23,19.90
2015,08,21,11,24,20.00
2015,08,21,11,25,20.00
2015,08,21,11,26,20.20
2015,08,21,11,27,20.30
2015,08,21,11,28,20.40
2015,08,21,11,29,20.40
2015,08,21,11,30,20.40
2015,08,21,11,31,20.50
2015,08,21,11,32,20.60
2015,08,21,11,33,20.60
2015,08,21,11,34,20.60
2015,08,21,11,35,20.60
2015,08,21,11,36,20.60
2015,08,21,11,37,20.60
2015,08,21,11,38,20.70
2015,08,21,11,39,20.70
2015,08,21,11,40,20.80
2015,08,21,11,41,20.90
2015,08,21,11,42,20.90
2015,08,21,11,43,20.90
2015,08,21,11,44,20.90
2015,08,21,11,45,20.90
2015,08,21,11,46,20.90
2015,08,21,11,47,20.90
2015,08,21,11,48,21.00
2015,08,21,11,49,21.10
2015,08,21,11,50,21.10
2015,08,21,11,51,21.20
2015,08,21,11,52,21.20
2015,08,21,11,53,21.30
2015,08,21,11,54,21.30
2015,08,21,11,55,21.30
2015,08,21,11,56,21.30
2015,08,21,11,57,21.20
2015,08,21,11,58,21.10
2015,08,21,11,59,21.10
2015,08,21,12,00,21.00
2015,08,21,12,01,21.00
2015,08,21,12,02,21.10
2015,08,21,12,03,21.20
2015,08,21,12,04,21.20
2015,08,21,12,05,21.30
2015,08,21,12,06,21.40
2015,08,21,12,07,21.50
2015,08,21,12,08,21.50
2015,08,21,12,09,21.40
2015,08,21,12,10,21.30
2015,08,21,12,11,21.30
2015,08,21,12,12,21.30
2015,08,21,12,13,21.40
2015,08,21,12,14,21.40
2015,08,21,12,15,21.40
2015,08,21,12,16,21.40
2015,08,21,12,17,21.50
2015,08,21,12,18,21.60
2015,08,21,12,19,21.60
2015,08,21,12,20,21.60
2015,08,21,12,21,21.60
2015,08,21,12,22,21.60
2015,08,21,12,23,21.60
2015,08,21,12,24,21.60
2015,08,21,12,25,21.60
2015,08,21,12,26,21.60
2015,08,21,12,27,21.70
2015,08,21,12,28,21.80
2015,08,21,12,29,21.90
2015,08,21,12,30,22.00
2015,08,21,12,31,22.00
2015,08,21,12,32,22.10
2015,08,21,12,33,22.10
2015,08,21,12,34,22.20
2015,08,21,12,35,22.20
2015,08,21,12,36,22.30
2015,08,21,12,37,22.30
2015,08,21,12,38,22.30
2015,08,21,12,39,22.30
2015,08,21,12,40,22.40
2015,08,21,12,41,22.40
2015,08,21,12,42,22.40
2015,08,21,12,43,22.40
2015,08,21,12,44,22.40
2015,08,21,12,45,22.40
2015,08,21,12,46,22.30
2015,08,21,12,47,22.40
2015,08,21,12,48,22.40
2015,08,21,12,49,22.40
2015,08,21,12,50,22.40
2015,08,21,12,51,22.40
2015,08,21,12,52,22.40
2015,08,21,12,53,22.50
2015,08,21,12,54,22.50
2015,08,21,12,55,22.60
2015,08,21,12,56,22.60
2015,08,21,12,57,22.60
2015,08,21,12,58,22.70
2015,08,21,12,59,22.80
2015,08,21,13,00,22.80
2015,08,21,13,01,22.70
2015,08,21,13,02,22.60
2015,08,21,13,03,22.60
2015,08,21,13,04,22.70
2015,08,21,13,05,22.70
2015,08,21,13,06,22.80
2015,08,21,13,07,22.80
2015,08,21,13,08,22.90
2015,08,21,13,09,22.90
2015,08,21,13,10,23.00
2015,08,21,13,11,23.10
2015,08,21,13,12,23.20
2015,08,21,13,13,23.20
2015,08,21,13,14,23.20
2015,08,21,13,15,23.20
2015,08,21,13,16,23.20
2015,08,21,13,17,23.10
2015,08,21,13,18,23.00
2015,08,21,13,19,22.90
2015,08,21,13,20,22.80
2015,08,21,13,21,22.90
2015,08,21,13,22,23.00
2015,08,21,13,23,23.10
2015,08,21,13,24,23.20
2015,08,21,13,25,23.10
2015,08,21,13,26,23.10
2015,08,21,13,27,23.00
2015,08,21,13,28,22.90
2015,08,21,13,29,22.80
2015,08,21,13,30,22.70
2015,08,21,13,31,22.70
2015,08,21,13,32,22.70
2015,08,21,13,33,22.70
2015,08,21,13,34,22.80
2015,08,21,13,35,22.90
2015,08,21,13,36,22.90
2015,08,21,13,37,22.90
2015,08,21,13,38,22.90
2015,08,21,13,39,22.90
2015,08,21,13,40,22.90
2015,08,21,13,41,22.90
2015,08,21,13,42,23.00
2015,08,21,13,43,23.10
2015,08,21,13,44,23.00
2015,08,21,13,45,23.00
2015,08,21,13,46,23.00
2015,08,21,13,47,23.00
2015,08,21,13,48,23.10
2015,08,21,13,49,23.10
2015,08,21,13,50,23.20
2015,08,21,13,51,23.20
2015,08,21,13,52,23.20
2015,08,21,13,53,23.20
2015,08,21,13,54,23.20
2015,08,21,13,55,23.30
2015,08,21,13,56,23.40
2015,08,21,13,57,23.40
2015,08,21,13,58,23.40
2015,08,21,13,59,23.40
2015,08,21,14,00,23.30
2015,08,21,14,01,23.40
2015,08,21,14,02,23.40
2015,08,21,14,03,23.40
2015,08,21,14,04,23.30
2015,08,21,14,05,23.30
2015,08,21,14,06,23.30
2015,08,21,14,07,23.40
2015,08,21,14,08,23.40
2015,08,21,14,09,23.50
2015,08,21,14,10,23.50
2015,08,21,14,11,23.60
2015,08,21,14,12,23.70
2015,08,21,14,13,23.70
2015,08,21,14,14,23.70
2015,08,21,14,15,23.70
2015,08,21,14,16,23.70
2015,08,21,14,17,23.80
2015,08,21,14,18,23.80
2015,08,21,14,19,23.80
2015,08,21,14,20,23.90
2015,08,21,14,21,23.90
2015,08,21,14,22,23.90
2015,08,21,14,23,23.80
2015,08,21,14,24,23.80
2015,08,21,14,25,23.80
2015,08,21,14,26,23.80
2015,08,21,14,27,23.80
2015,08,21,14,28,23.90
2015,08,21,14,29,24.00
2015,08,21,14,30,24.10
2015,08,21,14,31,24.10
2015,08,21,14,32,24.10
2015,08,21,14,33,24.00
2015,08,21,14,34,23.80
2015,08,21,14,35,23.80
2015,08,21,14,36,23.80
2015,08,21,14,37,23.80
2015,08,21,14,38,23.80
2015,08,21,14,39,23.90
2015,08,21,14,40,23.90
2015,08,21,14,41,23.90
2015,08,21,14,42,23.80
2015,08,21,14,43,23.80
2015,08,21,14,44,23.90
2015,08,21,14,45,24.00
2015,08,21,14,46,24.00
2015,08,21,14,47,24.00
2015,08,21,14,48,24.00
2015,08,21,14,49,24.00
2015,08,21,14,50,24.00
2015,08,21,14,51,24.00
2015,08,21,14,52,23.90
2015,08,21,14,53,23.80
2015,08,21,14,54,23.80
2015,08,21,14,55,23.80
2015,08,21,14,56,23.80
2015,08,21,14,57,23.90
2015,08,21,14,58,23.90
2015,08,21,14,59,23.80
2015,08,21,15,00,23.80
2015,08,21,15,01,23.80
2015,08,21,15,02,23.70
2015,08,21,15,03,23.70
2015,08,21,15,04,23.60
2015,08,21,15,05,23.60
2015,08,21,15,06,23.60
2015,08,21,15,07,23.70
2015,08,21,15,08,23.70
2015,08,21,15,09,23.80
2015,08,21,15,10,23.80
2015,08,21,15,11,23.90
2015,08,21,15,12,23.90
2015,08,21,15,13,23.90
2015,08,21,15,14,23.90
2015,08,21,15,15,23.80
2015,08,21,15,16,23.90
2015,08,21,15,17,23.90
2015,08,21,15,18,23.90
2015,08,21,15,19,23.90
2015,08,21,15,20,23.90
2015,08,21,15,21,24.00
2015,08,21,15,22,24.00
2015,08,21,15,23,24.10
2015,08,21,15,24,24.20
2015,08,21,15,25,24.20
2015,08,21,15,26,24.30
2015,08,21,15,27,24.30
2015,08,21,15,28,24.30
2015,08,21,15,29,24.30
2015,08,21,15,30,24.30
2015,08,21,15,31,24.20
2015,08,21,15,32,24.20
2015,08,21,15,33,24.20
2015,08,21,15,34,24.20
2015,08,21,15,35,24.20
2015,08,21,15,36,24.10
2015,08,21,15,37,24.10
2015,08,21,15,38,24.20
2015,08,21,15,39,24.20
2015,08,21,15,40,24.30
2015,08,21,15,41,24.40
2015,08,21,15,42,24.50
2015,08,21,15,43,24.60
2015,08,21,15,44,24.60
2015,08,21,15,45,24.60
2015,08,21,15,46,24.50
2015,08,21,15,47,24.50
2015,08,21,15,48,24.50
2015,08,21,15,49,24.40
2015,08,21,15,50,24.40
2015,08,21,15,51,24.30
2015,08,21,15,52,24.10
2015,08,21,15,53,23.90
2015,08,21,15,54,23.70
2015,08,21,15,55,23.60
2015,08,21,15,56,23.60
2015,08,21,15,57,23.50
2015,08,21,15,58,23.40
2015,08,21,15,59,23.30
2015,08,21,16,00,23.30
2015,08,21,16,01,23.30
2015,08,21,16,02,23.20
2015,08,21,16,03,23.00
2015,08,21,16,04,22.70
2015,08,21,16,05,22.50
2015,08,21,16,06,22.30
2015,08,21,16,07,22.20
2015,08,21,16,08,22.20
2015,08,21,16,09,22.10
2015,08,21,16,10,22.10
2015,08,21,16,11,22.00
2015,08,21,16,12,22.00
2015,08,21,16,13,22.00
2015,08,21,16,14,22.00
2015,08,21,16,15,21.90
2015,08,21,16,16,21.70
2015,08,21,16,17,21.60
2015,08,21,16,18,21.50
2015,08,21,16,19,21.40
2015,08,21,16,20,21.30
2015,08,21,16,21,21.30
2015,08,21,16,22,21.20
2015,08,21,16,23,21.20
2015,08,21,16,24,21.30
2015,08,21,16,25,21.30
2015,08,21,16,26,21.40
2015,08,21,16,27,21.40
2015,08,21,16,28,21.40
2015,08,21,16,29,21.40
2015,08,21,16,30,21.30
2015,08,21,16,31,21.40
2015,08,21,16,32,21.40
2015,08,21,16,33,21.40
2015,08,21,16,34,21.50
2015,08,21,16,35,21.60
2015,08,21,16,36,21.80
2015,08,21,16,37,21.90
2015,08,21,16,38,21.90
2015,08,21,16,39,22.10
2015,08,21,16,40,22.20
2015,08,21,16,41,22.20
2015,08,21,16,42,22.20
2015,08,21,16,43,22.10
2015,08,21,16,44,22.00
2015,08,21,16,45,22.00
2015,08,21,16,46,22.00
2015,08,21,16,47,22.10
2015,08,21,16,48,22.20
2015,08,21,16,49,22.20
2015,08,21,16,50,22.30
2015,08,21,16,51,22.30
2015,08,21,16,52,22.30
2015,08,21,16,53,22.30
2015,08,21,16,54,22.30
2015,08,21,16,55,22.30
2015,08,21,16,56,22.30
2015,08,21,16,57,22.30
2015,08,21,16,58,22.40
2015,08,21,16,59,22.40
2015,08,21,17,00,22.50
2015,08,21,17,01,22.60
2015,08,21,17,02,22.70
2015,08,21,17,03,22.70
2015,08,21,17,04,22.70
2015,08,21,17,05,22.80
2015,08,21,17,06,22.80
2015,08,21,17,07,22.70
2015,08,21,17,08,22.60
2015,08,21,17,09,22.60
2015,08,21,17,10,22.50
2015,08,21,17,11,22.40
2015,08,21,17,12,22.40
2015,08,21,17,13,22.40
2015,08,21,17,14,22.40
2015,08,21,17,15,22.40
2015,08,21,17,16,22.50
2015,08,21,17,17,22.60
2015,08,21,17,18,22.60
2015,08,21,17,19,22.60